This is the latest recevied weather packets stored in our database for station/object F4GSP-4. If no packets are shown the sender has not sent any weather packets the latest 10 day(s).
| Time | Temp. | Humidity | Pressure | Rain* | Wind** | Luminosity | Snow |
|---|---|---|---|---|---|---|---|
| 1777878439 | 11.11° C | 47% | 1027.7 hPa | - | - | - | - |
| 1777877539 | 11.11° C | 47% | 1027.5 hPa | - | - | - | - |
| 1777876639 | 11.11° C | 47% | 1027.5 hPa | - | - | - | - |
| 1777875739 | 10.56° C | 47% | 1027.4 hPa | - | - | - | - |
| 1777874839 | 10.56° C | 47% | 1027.5 hPa | - | - | - | - |
| 1777873939 | 10.56° C | 47% | 1027.4 hPa | - | - | - | - |
| 1777873039 | 10.56° C | 47% | 1027.4 hPa | - | - | - | - |
| 1777872138 | 10° C | 47% | 1027.4 hPa | - | - | - | - |
| 1777871238 | 10.56° C | 46% | 1027.4 hPa | - | - | - | - |
| 1777870338 | 10.56° C | 47% | 1027.1 hPa | - | - | - | - |
| 1777869438 | 9.44° C | 47% | 1026.8 hPa | - | - | - | - |
| 1777868538 | 8.89° C | 47% | 1026.7 hPa | - | - | - | - |
| 1777867637 | 8.89° C | 47% | 1026.6 hPa | - | - | - | - |
| 1777866737 | 8.89° C | 47% | 1026.5 hPa | - | - | - | - |
| 1777865837 | 8.89° C | 47% | 1026.6 hPa | - | - | - | - |
| 1777864937 | 8.89° C | 47% | 1026.8 hPa | - | - | - | - |
| 1777864037 | 8.89° C | 47% | 1026.8 hPa | - | - | - | - |
| 1777863137 | 9.44° C | 46% | 1026.9 hPa | - | - | - | - |
| 1777862236 | 8.89° C | 46% | 1026.9 hPa | - | - | - | - |
| 1777861336 | 8.89° C | 46% | 1026.9 hPa | - | - | - | - |
| 1777860436 | 8.89° C | 46% | 1027 hPa | - | - | - | - |
| 1777859536 | 9.44° C | 46% | 1026.9 hPa | - | - | - | - |
| 1777858636 | 9.44° C | 46% | 1027 hPa | - | - | - | - |
| 1777857736 | 9.44° C | 46% | 1027.1 hPa | - | - | - | - |
| 1777856836 | 8.89° C | 46% | 1027.1 hPa | - | - | - | - |
* Rain since midnight (hover to see other rain measurements)
** Current wind speed in m/s (hover to see current wind gust speed)